GLACB EGBO-EGBO

Flight info

Callsign GLACB
Flight time N/A
Altitude 7000
Route EGBO EGCC EGNM
Aircraft P28A/L-SFG/C

Departure

Time 2026-04-21 12:28
Airport Wolverhampton Halfpenny Green Airport (EGBO)

Arrival

Time N/A
Airport Wolverhampton Halfpenny Green Airport (EGBO)
Time Latitude Longitude Altitude Speed Heading
2026-04-21 12:16 52.51572 -2.26455 266 ft 0 kts 185°
2026-04-21 12:23 52.51567 -2.26456 268 ft 4 kts 180°
2026-04-21 12:23 52.51558 -2.26455 266 ft 0 kts 174°
2026-04-21 12:24 52.51540 -2.26445 267 ft 6 kts 148°
2026-04-21 12:24 52.51527 -2.26402 269 ft 5 kts 91°
2026-04-21 12:24 52.51524 -2.26354 269 ft 2 kts 97°
2026-04-21 12:25 52.51523 -2.26337 270 ft 5 kts 95°
2026-04-21 12:25 52.51520 -2.26258 271 ft 8 kts 98°
2026-04-21 12:25 52.51498 -2.26183 271 ft 7 kts 126°
2026-04-21 12:25 52.51466 -2.26111 272 ft 8 kts 126°
2026-04-21 12:26 52.51428 -2.26033 272 ft 9 kts 152°
2026-04-21 12:26 52.51364 -2.25990 273 ft 11 kts 155°
2026-04-21 12:26 52.51300 -2.25944 274 ft 6 kts 149°
2026-04-21 12:26 52.51279 -2.25881 277 ft 9 kts 110°
2026-04-21 12:27 52.51248 -2.25740 282 ft 12 kts 102°
2026-04-21 12:27 52.51252 -2.25647 284 ft 5 kts 68°
2026-04-21 12:27 52.51288 -2.25622 284 ft 10 kts 335°
2026-04-21 12:27 52.51525 -2.25801 285 ft 67 kts 346°
2026-04-21 12:28 52.52025 -2.26138 485 ft 81 kts 348°
2026-04-21 12:28 52.52552 -2.26477 837 ft 80 kts 351°
2026-04-21 12:28 52.53092 -2.26780 1152 ft 85 kts
2026-04-21 12:28 52.53565 -2.26594 1440 ft 69 kts 56°
2026-04-21 12:29 52.54037 -2.26224 1728 ft 88 kts 17°
2026-04-21 12:29 52.54661 -2.26167 2073 ft 90 kts 17°
2026-04-21 12:29 52.55287 -2.26117 2431 ft 92 kts 16°
2026-04-21 12:29 52.55934 -2.26095 2777 ft 93 kts 13°
2026-04-21 12:30 52.56584 -2.26089 3114 ft 94 kts 13°
2026-04-21 12:30 52.57234 -2.26089 3456 ft 93 kts 12°
2026-04-21 12:30 52.57883 -2.26095 3765 ft 93 kts 13°
2026-04-21 12:30 52.58534 -2.26103 4000 ft 99 kts 14°
2026-04-21 12:31 52.59305 -2.26097 4014 ft 121 kts 11°
2026-04-21 12:31 52.60198 -2.26110 4013 ft 134 kts
2026-04-21 12:31 52.61143 -2.26133 4012 ft 137 kts
2026-04-21 12:31 52.62122 -2.26152 4014 ft 143 kts
2026-04-21 12:32 52.63102 -2.26175 4009 ft 139 kts
2026-04-21 12:32 52.64058 -2.26194 4009 ft 136 kts
2026-04-21 12:32 52.64992 -2.26212 4014 ft 135 kts
2026-04-21 12:32 52.65928 -2.26228 4013 ft 134 kts
2026-04-21 12:33 52.66854 -2.26245 4009 ft 131 kts 10°
2026-04-21 12:33 52.67743 -2.26263 4001 ft 126 kts 11°
2026-04-21 12:33 52.68608 -2.26279 4000 ft 123 kts 11°
2026-04-21 12:33 52.69460 -2.26293 3999 ft 122 kts 10°
2026-04-21 12:34 52.70313 -2.26307 4001 ft 122 kts 11°
2026-04-21 12:34 52.71169 -2.26322 4002 ft 124 kts 11°
2026-04-21 12:34 52.72039 -2.26336 4002 ft 125 kts 10°
2026-04-21 12:34 52.72900 -2.26352 4002 ft 125 kts 11°
2026-04-21 12:35 52.73764 -2.26369 4004 ft 123 kts 10°
2026-04-21 12:35 52.74613 -2.26385 4006 ft 121 kts 11°
2026-04-21 12:35 52.75464 -2.26400 4007 ft 123 kts 12°
2026-04-21 12:35 52.76320 -2.26414 4007 ft 124 kts 11°
2026-04-21 12:36 52.77183 -2.26430 4006 ft 124 kts 11°
2026-04-21 12:36 52.78049 -2.26446 4006 ft 124 kts 12°
2026-04-21 12:36 52.78912 -2.26462 4004 ft 124 kts 12°
2026-04-21 12:36 52.79768 -2.26479 4008 ft 122 kts 12°
2026-04-21 12:37 52.80627 -2.26493 4009 ft 124 kts 11°
2026-04-21 12:37 52.81483 -2.26509 4008 ft 124 kts 11°
2026-04-21 12:37 52.82342 -2.26525 4007 ft 124 kts 12°
2026-04-21 12:37 52.83197 -2.26541 4005 ft 122 kts 11°
2026-04-21 12:38 52.84046 -2.26556 4003 ft 122 kts 12°
2026-04-21 12:38 52.84891 -2.26573 4012 ft 121 kts 12°
2026-04-21 12:38 52.85729 -2.26590 4012 ft 121 kts 12°
2026-04-21 12:38 52.86581 -2.26600 4012 ft 123 kts 11°
2026-04-21 12:39 52.87437 -2.26615 4010 ft 123 kts 11°
2026-04-21 12:39 52.88281 -2.26632 4012 ft 123 kts 11°
2026-04-21 12:39 52.89143 -2.26648 4015 ft 125 kts 11°
2026-04-21 12:39 52.90015 -2.26663 4016 ft 125 kts 11°
2026-04-21 12:40 52.90877 -2.26679 4018 ft 124 kts 11°
2026-04-21 12:40 52.91743 -2.26695 4021 ft 125 kts 11°
2026-04-21 12:40 52.92607 -2.26711 4020 ft 123 kts 11°
2026-04-21 12:40 52.93470 -2.26727 4020 ft 124 kts 11°
2026-04-21 12:41 52.94334 -2.26743 4024 ft 125 kts 10°
2026-04-21 12:41 52.95202 -2.26759 4021 ft 124 kts 10°
2026-04-21 12:41 52.96055 -2.26774 4019 ft 123 kts 11°
2026-04-21 12:41 52.96909 -2.26790 4021 ft 123 kts 11°
2026-04-21 12:42 52.97768 -2.26806 4020 ft 123 kts 11°
2026-04-21 12:42 52.98626 -2.26822 4021 ft 123 kts 12°
2026-04-21 12:42 52.99478 -2.26840 4018 ft 123 kts 12°
2026-04-21 12:42 53.00335 -2.26853 4015 ft 123 kts 12°
2026-04-21 12:43 53.01199 -2.26867 4021 ft 125 kts 12°
2026-04-21 12:43 53.02078 -2.26882 4027 ft 127 kts 12°
2026-04-21 12:43 53.02958 -2.26900 4034 ft 126 kts 12°
2026-04-21 12:43 53.03845 -2.26916 4033 ft 127 kts 12°
2026-04-21 12:44 53.04716 -2.26934 4031 ft 126 kts 12°
2026-04-21 12:44 53.05595 -2.26951 4030 ft 125 kts 12°
2026-04-21 12:44 53.06455 -2.26967 4028 ft 126 kts 12°
2026-04-21 12:44 53.07323 -2.26983 4025 ft 124 kts 12°
2026-04-21 12:45 53.08187 -2.26997 4030 ft 124 kts 13°
2026-04-21 12:45 53.09062 -2.27010 4031 ft 126 kts 12°
2026-04-21 12:45 53.09935 -2.27029 4037 ft 125 kts 12°
2026-04-21 12:45 53.10812 -2.27043 4042 ft 128 kts 12°
2026-04-21 12:46 53.11708 -2.27060 4044 ft 129 kts 12°
2026-04-21 12:46 53.12603 -2.27076 4042 ft 129 kts 12°
2026-04-21 12:46 53.13491 -2.27094 4038 ft 126 kts 12°
2026-04-21 12:46 53.14372 -2.27110 4042 ft 128 kts 12°
2026-04-21 12:47 53.15267 -2.27126 4037 ft 128 kts 12°
2026-04-21 12:47 53.16147 -2.27144 4044 ft 125 kts 12°
2026-04-21 12:47 53.17015 -2.27160 4036 ft 124 kts 12°
2026-04-21 12:47 53.17886 -2.27176 4038 ft 126 kts 12°
2026-04-21 12:48 53.18752 -2.27191 4038 ft 126 kts 12°
2026-04-21 12:48 53.19622 -2.27209 4038 ft 124 kts 12°
2026-04-21 12:48 53.20484 -2.27225 4037 ft 124 kts 13°
2026-04-21 12:48 53.21361 -2.27237 4043 ft 127 kts 12°
2026-04-21 12:49 53.22255 -2.27253 4049 ft 130 kts 12°
2026-04-21 12:49 53.23152 -2.27271 4035 ft 129 kts 13°
2026-04-21 12:49 53.24039 -2.27291 4037 ft 125 kts 12°
2026-04-21 12:49 53.24912 -2.27307 4044 ft 126 kts 13°
2026-04-21 12:50 53.25797 -2.27321 4037 ft 127 kts 12°
2026-04-21 12:50 53.26676 -2.27337 4041 ft 126 kts 12°
2026-04-21 12:50 53.27555 -2.27354 4043 ft 127 kts 12°
2026-04-21 12:50 53.28442 -2.27369 4038 ft 125 kts 14°
2026-04-21 12:51 53.29201 -2.26972 4044 ft 111 kts 37°
2026-04-21 12:51 53.29824 -2.26311 4036 ft 104 kts 51°
2026-04-21 12:51 53.30360 -2.25488 4037 ft 106 kts 51°
2026-04-21 12:51 53.30902 -2.24664 4035 ft 105 kts 51°
2026-04-21 12:52 53.31438 -2.23841 4039 ft 105 kts 51°
2026-04-21 12:52 53.31974 -2.23016 4037 ft 104 kts 51°
2026-04-21 12:52 53.32509 -2.22182 4035 ft 105 kts 52°
2026-04-21 12:52 53.33043 -2.21363 4038 ft 103 kts 51°
2026-04-21 12:53 53.33565 -2.20554 4043 ft 104 kts 52°
2026-04-21 12:53 53.34103 -2.19733 4039 ft 104 kts 51°
2026-04-21 12:53 53.34632 -2.18923 4040 ft 103 kts 51°
2026-04-21 12:53 53.35161 -2.18111 4043 ft 103 kts 51°
2026-04-21 12:54 53.35689 -2.17292 4042 ft 104 kts 51°
2026-04-21 12:54 53.36220 -2.16462 4038 ft 105 kts 51°
2026-04-21 12:54 53.36756 -2.15634 4043 ft 106 kts 51°
2026-04-21 12:54 53.37295 -2.14803 4038 ft 104 kts 52°
2026-04-21 12:55 53.37833 -2.13990 4039 ft 104 kts 51°
2026-04-21 12:55 53.38368 -2.13177 4041 ft 104 kts 52°
2026-04-21 12:55 53.38905 -2.12351 4041 ft 105 kts 52°
2026-04-21 12:55 53.39440 -2.11512 4042 ft 105 kts 52°
2026-04-21 12:56 53.39971 -2.10675 4047 ft 105 kts 52°
2026-04-21 12:56 53.40497 -2.09847 4044 ft 105 kts 52°
2026-04-21 12:56 53.41026 -2.09018 4037 ft 102 kts 52°
2026-04-21 12:56 53.41548 -2.08207 4038 ft 104 kts 52°
2026-04-21 12:57 53.42081 -2.07384 4037 ft 104 kts 52°
2026-04-21 12:57 53.42613 -2.06566 4041 ft 104 kts 52°
2026-04-21 12:57 53.43143 -2.05733 4037 ft 104 kts 52°
2026-04-21 12:57 53.43669 -2.04901 4041 ft 104 kts 53°
2026-04-21 12:58 53.44188 -2.04068 4050 ft 103 kts 52°
2026-04-21 12:58 53.44697 -2.03229 4050 ft 103 kts 53°
2026-04-21 12:58 53.45214 -2.02413 4051 ft 102 kts 52°
2026-04-21 12:58 53.45732 -2.01603 4052 ft 101 kts 52°
2026-04-21 12:59 53.46244 -2.00801 4053 ft 102 kts 52°
2026-04-21 12:59 53.46761 -1.99978 4057 ft 103 kts 51°
2026-04-21 12:59 53.47273 -1.99138 4057 ft 104 kts 53°
2026-04-21 12:59 53.47787 -1.98291 4052 ft 102 kts 51°
2026-04-21 13:00 53.48290 -1.97474 4055 ft 99 kts 53°
2026-04-21 13:00 53.48788 -1.96682 4053 ft 98 kts 52°
2026-04-21 13:00 53.49279 -1.95886 4051 ft 98 kts 53°
2026-04-21 13:00 53.49770 -1.95100 4051 ft 98 kts 52°
2026-04-21 13:01 53.50259 -1.94296 4055 ft 99 kts 52°
2026-04-21 13:01 53.50758 -1.93488 4052 ft 100 kts 52°
2026-04-21 13:01 53.51258 -1.92685 4056 ft 99 kts 52°
2026-04-21 13:01 53.51756 -1.91888 4056 ft 99 kts 52°
2026-04-21 13:02 53.52259 -1.91073 4062 ft 103 kts 52°
2026-04-21 13:02 53.52765 -1.90252 4056 ft 102 kts 52°
2026-04-21 13:02 53.53783 -1.88656 4063 ft 98 kts 53°
2026-04-21 13:03 53.54291 -1.87875 4073 ft 101 kts 53°
2026-04-21 13:03 53.54807 -1.87039 4070 ft 104 kts 53°
2026-04-21 13:03 53.55325 -1.86191 4081 ft 105 kts 53°
2026-04-21 13:03 53.55843 -1.85312 4083 ft 107 kts 53°
2026-04-21 13:04 53.56371 -1.84430 4078 ft 106 kts 53°
2026-04-21 13:04 53.56890 -1.83571 4078 ft 103 kts 53°
2026-04-21 13:04 53.57232 -1.83004 4075 ft 104 kts 53°
2026-04-21 13:04 53.57751 -1.82141 4074 ft 105 kts 53°
2026-04-21 13:05 53.58272 -1.81276 4069 ft 105 kts 53°
2026-04-21 13:05 53.58787 -1.80408 4076 ft 105 kts 53°
2026-04-21 13:05 53.59306 -1.79535 4080 ft 105 kts 54°
2026-04-21 13:05 53.59831 -1.78676 4079 ft 105 kts 52°
2026-04-21 13:06 53.60347 -1.77803 4077 ft 106 kts 53°
2026-04-21 13:06 53.60997 -1.77167 4061 ft 121 kts 20°
2026-04-21 13:06 53.61849 -1.77081 4068 ft 123 kts 18°
2026-04-21 13:06 53.62699 -1.76990 4064 ft 121 kts 20°
2026-04-21 13:07 53.63525 -1.76898 4065 ft 120 kts 19°
2026-04-21 13:07 53.64356 -1.76802 4063 ft 118 kts 18°
2026-04-21 13:07 53.65163 -1.76711 4064 ft 114 kts 17°
2026-04-21 13:07 53.65948 -1.76593 4069 ft 114 kts 20°
2026-04-21 13:08 53.66782 -1.76950 4064 ft 134 kts 348°
2026-04-21 13:08 53.67628 -1.77629 4068 ft 135 kts 351°
2026-04-21 13:08 53.68487 -1.78314 4072 ft 137 kts 350°
2026-04-21 13:08 53.69341 -1.79007 4076 ft 137 kts 346°
2026-04-21 13:09 53.70205 -1.79682 4074 ft 136 kts 348°
2026-04-21 13:09 53.71066 -1.80367 4077 ft 137 kts 349°
2026-04-21 13:09 53.71925 -1.81028 4074 ft 134 kts 349°
2026-04-21 13:09 53.72776 -1.81673 4071 ft 135 kts 348°
2026-04-21 13:10 53.73628 -1.82327 4067 ft 133 kts 349°
2026-04-21 13:10 53.74484 -1.82953 4067 ft 135 kts 349°
2026-04-21 13:10 53.75270 -1.83899 4063 ft 144 kts 326°
2026-04-21 13:10 53.75987 -1.85058 4059 ft 143 kts 328°
2026-04-21 13:11 53.76725 -1.86223 4020 ft 146 kts 327°
2026-04-21 13:11 53.77459 -1.87377 4016 ft 142 kts 328°
2026-04-21 13:11 53.78189 -1.88533 4018 ft 144 kts 328°
2026-04-21 13:11 53.78917 -1.89668 4016 ft 144 kts 327°
2026-04-21 13:12 53.79656 -1.90818 4014 ft 144 kts 327°
2026-04-21 13:12 53.80394 -1.91970 4013 ft 145 kts 328°
2026-04-21 13:12 53.81121 -1.93138 4017 ft 146 kts 328°
2026-04-21 13:12 53.81861 -1.94295 4005 ft 142 kts 327°
2026-04-21 13:13 53.82580 -1.95433 4017 ft 144 kts 328°
2026-04-21 13:13 53.83315 -1.96620 4019 ft 147 kts 328°
2026-04-21 13:13 53.84054 -1.97813 4022 ft 146 kts 327°
2026-04-21 13:13 53.84802 -1.98980 4029 ft 145 kts 329°
2026-04-21 13:14 53.85555 -2.00148 4016 ft 147 kts 326°
2026-04-21 13:14 53.86355 -2.01077 3991 ft 135 kts 354°
2026-04-21 13:14 53.87273 -2.01428 3928 ft 137 kts 359°
2026-04-21 13:14 53.88221 -2.01794 3855 ft 140 kts 359°
2026-04-21 13:15 53.89152 -2.01958 3776 ft 130 kts 16°
2026-04-21 13:15 53.90062 -2.01853 3701 ft 131 kts 16°
2026-04-21 13:15 53.90967 -2.01697 3634 ft 127 kts 27°
2026-04-21 13:15 53.91748 -2.01067 3543 ft 122 kts 38°
2026-04-21 13:16 53.92465 -2.00403 3455 ft 114 kts 39°
2026-04-21 13:16 53.93148 -1.99799 3380 ft 109 kts 39°
2026-04-21 13:16 53.93812 -1.99211 3291 ft 107 kts 38°
2026-04-21 13:16 53.94472 -1.98629 3209 ft 107 kts 38°
2026-04-21 13:17 53.95143 -1.98025 3144 ft 112 kts 39°
2026-04-21 13:17 53.95831 -1.97394 3051 ft 111 kts 39°
2026-04-21 13:17 53.96491 -1.96787 3021 ft 105 kts 39°
2026-04-21 13:17 53.96758 -1.95832 3016 ft 90 kts 88°
2026-04-21 13:18 53.96737 -1.94781 3011 ft 89 kts 88°
2026-04-21 13:18 53.96727 -1.93724 3013 ft 89 kts 87°
2026-04-21 13:18 53.96717 -1.92673 3015 ft 90 kts 88°
2026-04-21 13:18 53.96723 -1.91600 3016 ft 90 kts 87°
2026-04-21 13:19 53.96729 -1.90544 3023 ft 91 kts 88°
2026-04-21 13:19 53.96734 -1.89454 3025 ft 94 kts 88°
2026-04-21 13:19 53.96739 -1.88357 3033 ft 91 kts 88°
2026-04-21 13:19 53.96744 -1.87289 3017 ft 90 kts 88°
2026-04-21 13:20 53.96743 -1.86231 3015 ft 88 kts 89°
2026-04-21 13:20 53.96718 -1.85202 3004 ft 87 kts 89°
2026-04-21 13:20 53.96675 -1.84176 3015 ft 88 kts 90°
2026-04-21 13:20 53.96626 -1.83121 3023 ft 91 kts 90°
2026-04-21 13:21 53.96480 -1.82068 3011 ft 100 kts 118°
2026-04-21 13:21 53.95845 -1.81424 3011 ft 106 kts 134°
2026-04-21 13:21 53.95273 -1.80750 3069 ft 90 kts 117°
2026-04-21 13:21 53.94924 -1.79940 3094 ft 84 kts 113°
2026-04-21 13:22 53.94500 -1.79194 3068 ft 91 kts 123°
2026-04-21 13:22 53.94043 -1.78421 3033 ft 94 kts 122°
2026-04-21 13:22 53.93568 -1.77670 2937 ft 91 kts 120°
2026-04-21 13:22 53.93160 -1.76893 2879 ft 86 kts 116°
2026-04-21 13:23 53.92793 -1.76047 2595 ft 90 kts 112°
2026-04-21 13:23 53.92459 -1.75199 2415 ft 86 kts 112°
2026-04-21 13:23 53.92072 -1.74456 2289 ft 85 kts 126°
2026-04-21 13:23 53.91598 -1.73855 2107 ft 84 kts 126°
2026-04-21 13:24 53.91159 -1.73219 2006 ft 77 kts 121°
2026-04-21 13:24 53.90809 -1.72693 1966 ft 61 kts 118°
2026-04-21 13:24 53.90513 -1.72188 1846 ft 63 kts 115°
2026-04-21 13:24 53.90208 -1.71648 1692 ft 61 kts 115°
2026-04-21 13:25 53.89886 -1.71136 1584 ft 67 kts 121°
2026-04-21 13:25 53.89530 -1.70593 1465 ft 68 kts 124°
2026-04-21 13:25 53.89179 -1.70113 1388 ft 65 kts 122°
2026-04-21 13:25 53.88855 -1.69580 1232 ft 68 kts 118°
2026-04-21 13:26 53.88511 -1.69020 1140 ft 68 kts 122°
2026-04-21 13:26 53.88172 -1.68490 1022 ft 64 kts 122°
2026-04-21 13:26 53.87864 -1.68041 924 ft 57 kts 125°
2026-04-21 13:26 53.87580 -1.67608 844 ft 58 kts 117°
2026-04-21 13:27 53.87244 -1.67074 755 ft 71 kts 127°
2026-04-21 13:27 53.86893 -1.66524 680 ft 64 kts 121°
2026-04-21 13:27 53.86590 -1.66045 804 ft 58 kts 119°
2026-04-21 13:27 53.86275 -1.65604 1046 ft 60 kts 122°
2026-04-21 13:28 53.85952 -1.65166 1331 ft 61 kts 118°
2026-04-21 13:28 53.85610 -1.64606 1612 ft 73 kts 120°
2026-04-21 13:28 53.85210 -1.64038 1978 ft 89 kts 145°
2026-04-21 13:28 53.84523 -1.64494 2345 ft 116 kts 204°
2026-04-21 13:29 53.83932 -1.65439 2661 ft 127 kts 243°
2026-04-21 13:29 53.83642 -1.66814 3009 ft 126 kts 246°
2026-04-21 13:29 53.83308 -1.68332 3114 ft 148 kts 246°
2026-04-21 13:29 53.82950 -1.70005 3240 ft 158 kts 252°
2026-04-21 13:30 53.82712 -1.71871 3365 ft 167 kts 258°
2026-04-21 13:30 53.82467 -1.73833 3485 ft 173 kts 257°
2026-04-21 13:30 53.82220 -1.75838 3595 ft 173 kts 258°
2026-04-21 13:30 53.81972 -1.77844 3701 ft 175 kts 257°
2026-04-21 13:31 53.81724 -1.79861 3825 ft 174 kts 258°
2026-04-21 13:31 53.81476 -1.81870 3933 ft 175 kts 258°
2026-04-21 13:31 53.81229 -1.83898 4030 ft 176 kts 258°
2026-04-21 13:31 53.80985 -1.85934 4132 ft 175 kts 258°
2026-04-21 13:32 53.80743 -1.87957 4234 ft 176 kts 258°
2026-04-21 13:32 53.80501 -1.89992 4331 ft 177 kts 258°
2026-04-21 13:32 53.80266 -1.92005 4436 ft 176 kts 258°
2026-04-21 13:32 53.80031 -1.94019 4536 ft 173 kts 258°
2026-04-21 13:33 53.79798 -1.96037 4650 ft 176 kts 258°
2026-04-21 13:33 53.79562 -1.98084 4749 ft 177 kts 258°
2026-04-21 13:33 53.79322 -2.00121 4853 ft 175 kts 258°
2026-04-21 13:33 53.79087 -2.02140 4970 ft 175 kts 258°
2026-04-21 13:34 53.78850 -2.04188 4992 ft 180 kts 258°
2026-04-21 13:34 53.78615 -2.06294 4998 ft 184 kts 258°
2026-04-21 13:34 53.78379 -2.08432 4996 ft 186 kts 258°
2026-04-21 13:34 53.78153 -2.10570 4996 ft 188 kts 258°
2026-04-21 13:35 53.77676 -2.12559 4981 ft 181 kts 227°
2026-04-21 13:35 53.76887 -2.14150 4997 ft 171 kts 212°
2026-04-21 13:35 53.75999 -2.15481 4987 ft 168 kts 210°
2026-04-21 13:35 53.75117 -2.16784 5002 ft 169 kts 211°
2026-04-21 13:36 53.74224 -2.18066 4993 ft 168 kts 210°
2026-04-21 13:36 53.73316 -2.19355 4993 ft 172 kts 210°
2026-04-21 13:36 53.72403 -2.20666 4992 ft 173 kts 211°
2026-04-21 13:36 53.71470 -2.21977 4988 ft 174 kts 210°
2026-04-21 13:37 53.70550 -2.23271 4981 ft 171 kts 211°
2026-04-21 13:37 53.69625 -2.24511 4974 ft 166 kts 202°
2026-04-21 13:37 53.68631 -2.25437 4978 ft 162 kts 197°
2026-04-21 13:37 53.67635 -2.26323 4979 ft 165 kts 197°
2026-04-21 13:38 53.66625 -2.27220 4975 ft 164 kts 197°
2026-04-21 13:38 53.65620 -2.28127 4981 ft 165 kts 197°
2026-04-21 13:38 53.64596 -2.29049 4973 ft 166 kts 197°
2026-04-21 13:38 53.63578 -2.29962 4971 ft 165 kts 197°
2026-04-21 13:39 53.62565 -2.30859 4971 ft 164 kts 198°
2026-04-21 13:39 53.61638 -2.31985 4962 ft 170 kts 208°
2026-04-21 13:39 53.60675 -2.33238 4782 ft 179 kts 208°
2026-04-21 13:39 53.59675 -2.34529 4601 ft 183 kts 208°
2026-04-21 13:40 53.58649 -2.35840 4421 ft 186 kts 208°
2026-04-21 13:40 53.57610 -2.37165 4237 ft 186 kts 208°
2026-04-21 13:40 53.56574 -2.38464 4057 ft 186 kts 208°
2026-04-21 13:40 53.55545 -2.39748 3983 ft 181 kts 208°
2026-04-21 13:41 53.54544 -2.41004 3973 ft 179 kts 208°
2026-04-21 13:41 53.53559 -2.42245 3974 ft 176 kts 208°
2026-04-21 13:41 53.52584 -2.43481 3972 ft 174 kts 208°
2026-04-21 13:41 53.51610 -2.44710 3887 ft 177 kts 208°
2026-04-21 13:42 53.50639 -2.45936 3756 ft 177 kts 208°
2026-04-21 13:42 53.49637 -2.47187 3633 ft 177 kts 208°
2026-04-21 13:42 53.48637 -2.48423 3500 ft 180 kts 208°
2026-04-21 13:42 53.47646 -2.49657 3371 ft 180 kts 208°
2026-04-21 13:43 53.46639 -2.50918 3237 ft 180 kts 209°
2026-04-21 13:43 53.45636 -2.52154 3106 ft 178 kts 209°
2026-04-21 13:43 53.44631 -2.53382 2982 ft 179 kts 209°
2026-04-21 13:43 53.43641 -2.54607 2988 ft 174 kts 208°
2026-04-21 13:44 53.42679 -2.55807 2986 ft 171 kts 208°
2026-04-21 13:44 53.41728 -2.57004 2979 ft 171 kts 209°
2026-04-21 13:44 53.40780 -2.58199 2985 ft 168 kts 208°
2026-04-21 13:44 53.39854 -2.59374 2984 ft 165 kts 209°
2026-04-21 13:45 53.38847 -2.60111 2972 ft 153 kts 183°
2026-04-21 13:45 53.37797 -2.60466 2983 ft 155 kts 181°
2026-04-21 13:45 53.36737 -2.60836 2979 ft 155 kts 182°
2026-04-21 13:45 53.35692 -2.61197 2976 ft 155 kts 182°
2026-04-21 13:46 53.34642 -2.61552 2978 ft 152 kts 178°
2026-04-21 13:46 53.33590 -2.61750 2905 ft 152 kts 175°
2026-04-21 13:46 53.32524 -2.61940 2832 ft 155 kts 175°
2026-04-21 13:46 53.31437 -2.62122 2750 ft 155 kts 173°
2026-04-21 13:47 53.30541 -2.61513 2644 ft 134 kts 123°
2026-04-21 13:47 53.30083 -2.60200 2570 ft 131 kts 113°
2026-04-21 13:47 53.29645 -2.58823 2485 ft 136 kts 113°
2026-04-21 13:47 53.29228 -2.57480 2482 ft 129 kts 112°
2026-04-21 13:48 53.28823 -2.56158 2471 ft 127 kts 110°
2026-04-21 13:48 53.28457 -2.54860 2470 ft 119 kts 103°
2026-04-21 13:48 53.28251 -2.53544 2472 ft 117 kts 99°
2026-04-21 13:48 53.28054 -2.52237 2469 ft 114 kts 99°
2026-04-21 13:49 53.27918 -2.50950 2472 ft 111 kts 94°
2026-04-21 13:49 53.27827 -2.49686 2470 ft 108 kts 92°
2026-04-21 13:49 53.27786 -2.48441 2487 ft 107 kts 90°
2026-04-21 13:49 53.27760 -2.47180 2482 ft 110 kts 91°
2026-04-21 13:50 53.27735 -2.45886 2472 ft 112 kts 91°
2026-04-21 13:50 53.27707 -2.44602 2474 ft 110 kts 91°
2026-04-21 13:50 53.27855 -2.43387 2482 ft 112 kts 71°
2026-04-21 13:50 53.28233 -2.42220 2389 ft 115 kts 62°
2026-04-21 13:51 53.28737 -2.41252 2136 ft 106 kts 52°
2026-04-21 13:51 53.29231 -2.40415 1993 ft 98 kts 54°
2026-04-21 13:51 53.29681 -2.39543 1874 ft 100 kts 58°
2026-04-21 13:51 53.30110 -2.38622 1739 ft 99 kts 60°
2026-04-21 13:52 53.30516 -2.37717 1606 ft 95 kts 60°
2026-04-21 13:52 53.30756 -2.37152 1566 ft 84 kts 60°
2026-04-21 13:52 53.31100 -2.36424 1410 ft 75 kts 57°
2026-04-21 13:52 53.31429 -2.35794 1315 ft 67 kts 57°
2026-04-21 13:53 53.31690 -2.35261 1242 ft 54 kts 59°
2026-04-21 13:53 53.31932 -2.34793 1097 ft 54 kts 60°
2026-04-21 13:53 53.32177 -2.34305 1012 ft 64 kts 60°
2026-04-21 13:53 53.32440 -2.33690 1016 ft 64 kts 63°
2026-04-21 13:54 53.32693 -2.33112 915 ft 62 kts 60°
2026-04-21 13:54 53.32959 -2.32541 850 ft 59 kts 58°
2026-04-21 13:54 53.33234 -2.32020 729 ft 61 kts 52°
2026-04-21 13:54 53.33468 -2.31440 649 ft 59 kts 59°
2026-04-21 13:55 53.33737 -2.30895 605 ft 61 kts 51°
2026-04-21 13:55 53.34010 -2.30316 518 ft 66 kts 53°
2026-04-21 13:55 53.34299 -2.29737 421 ft 61 kts 58°
2026-04-21 13:55 53.34544 -2.29229 326 ft 57 kts 60°
2026-04-21 13:56 53.34793 -2.28701 257 ft 58 kts 58°
2026-04-21 13:56 53.35063 -2.28164 415 ft 65 kts 54°
2026-04-21 13:56 53.35371 -2.27531 726 ft 74 kts 57°
2026-04-21 13:56 53.35701 -2.26871 1049 ft 76 kts 62°
2026-04-21 13:57 53.36046 -2.26159 1334 ft 82 kts 54°
2026-04-21 13:57 53.36519 -2.25540 1482 ft 93 kts 51°
2026-04-21 13:57 53.37211 -2.25213 1474 ft 127 kts
2026-04-21 13:57 53.38072 -2.25742 1483 ft 132 kts 353°
2026-04-21 13:58 53.38925 -2.26385 1492 ft 139 kts 340°
2026-04-21 13:58 53.39754 -2.27230 1491 ft 140 kts 341°
2026-04-21 13:58 53.40585 -2.28111 1508 ft 140 kts 340°
2026-04-21 13:58 53.41382 -2.28953 1562 ft 138 kts 339°
2026-04-21 13:59 53.42128 -2.30100 1561 ft 149 kts 325°
2026-04-21 13:59 53.42864 -2.31348 1567 ft 151 kts 326°
2026-04-21 13:59 53.43622 -2.32595 1564 ft 154 kts 327°
2026-04-21 13:59 53.44391 -2.33829 1552 ft 152 kts 326°
2026-04-21 14:00 53.45146 -2.35062 1552 ft 149 kts 326°
2026-04-21 14:00 53.45878 -2.36257 1548 ft 145 kts 326°
2026-04-21 14:00 53.46617 -2.37330 1487 ft 133 kts 342°
2026-04-21 14:00 53.47402 -2.37865 1296 ft 111 kts 356°
2026-04-21 14:01 53.48084 -2.38403 1110 ft 109 kts 326°
2026-04-21 14:01 53.48461 -2.39506 964 ft 108 kts 301°
2026-04-21 14:01 53.48695 -2.40658 936 ft 110 kts 288°
2026-04-21 14:01 53.48696 -2.41889 956 ft 107 kts 242°
2026-04-21 14:02 53.48221 -2.42691 952 ft 90 kts 182°
2026-04-21 14:02 53.47661 -2.42980 800 ft 78 kts 165°
2026-04-21 14:02 53.47226 -2.42727 704 ft 67 kts 124°
2026-04-21 14:03 53.46998 -2.41403 378 ft 57 kts 83°
2026-04-21 14:03 53.47039 -2.40731 272 ft 56 kts 84°
2026-04-21 14:03 53.47074 -2.40131 172 ft 51 kts 83°
2026-04-21 14:03 53.47119 -2.39489 87 ft 59 kts 82°
2026-04-21 14:04 53.47167 -2.38834 159 ft 63 kts 83°
2026-04-21 14:04 53.47203 -2.38081 389 ft 65 kts 82°
2026-04-21 14:04 53.47317 -2.37378 756 ft 67 kts 64°
2026-04-21 14:04 53.47896 -2.37036 880 ft 109 kts
2026-04-21 14:05 53.48654 -2.37591 989 ft 127 kts 328°
2026-04-21 14:05 53.49170 -2.38878 1020 ft 134 kts 297°
2026-04-21 14:05 53.49357 -2.40416 1038 ft 138 kts 267°
2026-04-21 14:05 53.49159 -2.41997 1001 ft 143 kts 253°
2026-04-21 14:06 53.48725 -2.43227 1020 ft 106 kts 210°
2026-04-21 14:06 53.48154 -2.43694 939 ft 78 kts 167°
2026-04-21 14:06 53.47644 -2.43618 916 ft 75 kts 147°
2026-04-21 14:06 53.47145 -2.43371 831 ft 62 kts 122°
2026-04-21 14:07 53.47010 -2.42771 637 ft 58 kts 98°
2026-04-21 14:07 53.46955 -2.42106 460 ft 59 kts 91°
2026-04-21 14:07 53.46987 -2.41433 379 ft 54 kts 84°
2026-04-21 14:07 53.47025 -2.40842 291 ft 50 kts 85°
2026-04-21 14:08 53.47064 -2.40239 212 ft 52 kts 83°
2026-04-21 14:08 53.47100 -2.39702 113 ft 43 kts 83°
2026-04-21 14:08 53.47139 -2.39208 84 ft 42 kts 79°
2026-04-21 14:08 53.47190 -2.38604 216 ft 60 kts 81°
2026-04-21 14:09 53.47286 -2.37826 420 ft 78 kts 71°
2026-04-21 14:09 53.47694 -2.37197 748 ft 99 kts 18°
2026-04-21 14:09 53.48362 -2.37758 1092 ft 112 kts 338°
2026-04-21 14:09 53.48988 -2.38543 1464 ft 112 kts 336°
2026-04-21 14:10 53.49613 -2.39340 1819 ft 118 kts 333°
2026-04-21 14:10 53.50007 -2.40830 1840 ft 158 kts 288°
2026-04-21 14:10 53.50264 -2.42662 1849 ft 170 kts 288°
2026-04-21 14:10 53.50522 -2.44700 1841 ft 180 kts 272°
2026-04-21 14:11 53.50278 -2.46748 1841 ft 183 kts 253°
2026-04-21 14:11 53.49958 -2.48757 1844 ft 173 kts 253°
2026-04-21 14:11 53.49651 -2.50687 1844 ft 170 kts 253°
2026-04-21 14:11 53.49336 -2.52621 1839 ft 172 kts 254°
2026-04-21 14:12 53.49009 -2.54533 1838 ft 170 kts 253°
2026-04-21 14:12 53.48683 -2.56469 1834 ft 173 kts 253°
2026-04-21 14:12 53.48363 -2.58395 1845 ft 169 kts 251°
2026-04-21 14:12 53.48073 -2.60335 1839 ft 172 kts 253°
2026-04-21 14:13 53.47791 -2.62294 1834 ft 173 kts 253°
2026-04-21 14:13 53.47512 -2.64237 1838 ft 170 kts 255°
2026-04-21 14:13 53.47215 -2.66178 1835 ft 173 kts 253°
2026-04-21 14:13 53.46911 -2.68129 1837 ft 172 kts 254°
2026-04-21 14:14 53.46613 -2.70067 1833 ft 171 kts 253°
2026-04-21 14:14 53.46334 -2.71994 1831 ft 169 kts 254°
2026-04-21 14:14 53.46063 -2.73911 1831 ft 169 kts 254°
2026-04-21 14:14 53.45792 -2.75826 1827 ft 168 kts 254°
2026-04-21 14:15 53.45515 -2.77723 1826 ft 167 kts 254°
2026-04-21 14:15 53.45233 -2.79622 1832 ft 169 kts 254°
2026-04-21 14:15 53.44956 -2.81538 1841 ft 168 kts 254°
2026-04-21 14:15 53.44685 -2.83426 1844 ft 168 kts 254°
2026-04-21 14:16 53.44416 -2.85330 1852 ft 167 kts 254°
2026-04-21 14:16 53.44148 -2.87251 1845 ft 170 kts 254°
2026-04-21 14:16 53.43881 -2.89181 1842 ft 169 kts 254°
2026-04-21 14:16 53.43617 -2.91101 1832 ft 169 kts 254°
2026-04-21 14:17 53.43343 -2.93007 1823 ft 164 kts 254°
2026-04-21 14:17 53.43087 -2.94839 1823 ft 159 kts 254°
2026-04-21 14:17 53.42835 -2.96641 1819 ft 158 kts 255°
2026-04-21 14:17 53.42583 -2.98420 1816 ft 159 kts 254°
2026-04-21 14:18 53.42326 -3.00224 1814 ft 161 kts 254°
2026-04-21 14:18 53.42065 -3.02044 1819 ft 160 kts 254°
2026-04-21 14:18 53.41674 -3.03744 1802 ft 152 kts 221°
2026-04-21 14:18 53.40865 -3.04704 1817 ft 140 kts 201°
2026-04-21 14:19 53.40037 -3.05503 1806 ft 129 kts 180°
2026-04-21 14:19 53.39206 -3.05393 1816 ft 119 kts 156°
2026-04-21 14:19 53.38381 -3.05185 1818 ft 120 kts 158°
2026-04-21 14:19 53.37571 -3.04950 1818 ft 113 kts 153°
2026-04-21 14:20 53.36830 -3.04573 1815 ft 110 kts 150°
2026-04-21 14:20 53.36140 -3.04141 1816 ft 105 kts 143°
2026-04-21 14:20 53.35482 -3.03639 1815 ft 103 kts 143°
2026-04-21 14:20 53.34838 -3.03162 1816 ft 99 kts 144°
2026-04-21 14:21 53.34220 -3.02625 1818 ft 101 kts 140°
2026-04-21 14:21 53.33635 -3.02018 1819 ft 95 kts 129°
2026-04-21 14:21 53.33338 -3.01113 1845 ft 85 kts 108°
2026-04-21 14:21 53.33074 -3.00295 1770 ft 75 kts 112°
2026-04-21 14:22 53.32832 -2.99528 1588 ft 75 kts 103°
2026-04-21 14:22 53.32741 -2.98735 1454 ft 63 kts 90°
2026-04-21 14:22 53.32778 -2.98028 1435 ft 60 kts 83°
2026-04-21 14:22 53.32820 -2.97360 1377 ft 54 kts 89°
2026-04-21 14:23 53.32817 -2.96732 1330 ft 55 kts 87°
2026-04-21 14:23 53.32862 -2.96078 1275 ft 58 kts 80°
2026-04-21 14:23 53.32913 -2.95399 1213 ft 59 kts 85°
2026-04-21 14:23 53.32913 -2.94723 1068 ft 57 kts 89°
2026-04-21 14:24 53.32919 -2.94068 925 ft 54 kts 85°
2026-04-21 14:24 53.32990 -2.93464 859 ft 53 kts 83°
2026-04-21 14:24 53.33022 -2.92853 730 ft 53 kts 83°
2026-04-21 14:24 53.33087 -2.92265 695 ft 47 kts 85°
2026-04-21 14:25 53.33094 -2.91745 686 ft 44 kts 91°
2026-04-21 14:25 53.33089 -2.91240 649 ft 43 kts 86°
2026-04-21 14:25 53.33125 -2.90699 585 ft 49 kts 84°
2026-04-21 14:25 53.33152 -2.90130 493 ft 51 kts 90°
2026-04-21 14:26 53.33159 -2.89535 451 ft 51 kts 86°
2026-04-21 14:26 53.33187 -2.88949 452 ft 49 kts 86°
2026-04-21 14:26 53.33201 -2.88430 339 ft 39 kts 91°
2026-04-21 14:26 53.33228 -2.87947 274 ft 45 kts 87°
2026-04-21 14:27 53.33260 -2.87413 228 ft 46 kts 81°
2026-04-21 14:27 53.33274 -2.86895 181 ft 48 kts 89°
2026-04-21 14:27 53.33303 -2.86354 89 ft 47 kts 88°
2026-04-21 14:27 53.33324 -2.85856 94 ft 47 kts 85°
2026-04-21 14:28 53.33346 -2.85270 321 ft 48 kts 87°
2026-04-21 14:28 53.33389 -2.84640 522 ft 66 kts 85°
2026-04-21 14:28 53.33161 -2.83962 713 ft 84 kts 146°
2026-04-21 14:28 53.32570 -2.84206 824 ft 90 kts 178°
2026-04-21 14:29 53.31998 -2.84571 894 ft 92 kts 176°
2026-04-21 14:29 53.31343 -2.85179 1084 ft 126 kts 214°
2026-04-21 14:29 53.30678 -2.86174 1402 ft 130 kts 211°
2026-04-21 14:29 53.30012 -2.87248 1515 ft 144 kts 233°
2026-04-21 14:30 53.29637 -2.88875 1534 ft 156 kts 253°
2026-04-21 14:30 53.29456 -2.90711 1538 ft 165 kts 260°
2026-04-21 14:30 53.29261 -2.92642 1534 ft 168 kts 259°
2026-04-21 14:30 53.29070 -2.94555 1532 ft 167 kts 259°
2026-04-21 14:31 53.28878 -2.96470 1537 ft 166 kts 259°
2026-04-21 14:31 53.28706 -2.98351 1531 ft 167 kts 260°
2026-04-21 14:31 53.28516 -3.00296 1532 ft 168 kts 259°
2026-04-21 14:31 53.28359 -3.02190 1514 ft 161 kts 273°
2026-04-21 14:32 53.28523 -3.04009 1517 ft 157 kts 290°
2026-04-21 14:32 53.29101 -3.05454 1510 ft 142 kts 331°
2026-04-21 14:32 53.29952 -3.05770 1525 ft 121 kts 15°
2026-04-21 14:32 53.30788 -3.06212 1527 ft 141 kts 328°
2026-04-21 14:33 53.31556 -3.06972 1638 ft 119 kts 354°
2026-04-21 14:33 53.32314 -3.07001 1672 ft 103 kts 24°
2026-04-21 14:33 53.32534 -3.06136 1669 ft 91 kts 92°
2026-04-21 14:33 53.32489 -3.05058 1675 ft 95 kts 92°
2026-04-21 14:34 53.32477 -3.03946 1715 ft 95 kts 89°
2026-04-21 14:34 53.32521 -3.02843 1807 ft 94 kts 87°
2026-04-21 14:34 53.32571 -3.01726 1804 ft 98 kts 85°
2026-04-21 14:34 53.32617 -3.00570 1757 ft 102 kts 85°
2026-04-21 14:35 53.32697 -2.99372 1627 ft 105 kts 83°
2026-04-21 14:35 53.32802 -2.98150 1431 ft 108 kts 82°
2026-04-21 14:35 53.32873 -2.96928 1312 ft 104 kts 87°
2026-04-21 14:35 53.32853 -2.95720 1178 ft 103 kts 92°
2026-04-21 14:36 53.32865 -2.94550 1079 ft 100 kts 85°
2026-04-21 14:36 53.32966 -2.93390 890 ft 100 kts 81°
2026-04-21 14:36 53.33036 -2.92269 741 ft 93 kts 86°
2026-04-21 14:36 53.33087 -2.91245 696 ft 82 kts 86°
2026-04-21 14:37 53.33116 -2.90670 609 ft 70 kts 87°
2026-04-21 14:37 53.33134 -2.89956 520 ft 52 kts 88°
2026-04-21 14:37 53.33162 -2.89322 424 ft 54 kts 86°
2026-04-21 14:37 53.33188 -2.88754 380 ft 47 kts 88°
2026-04-21 14:38 53.33214 -2.88198 321 ft 50 kts 87°
2026-04-21 14:38 53.33241 -2.87593 238 ft 53 kts 89°
2026-04-21 14:38 53.33276 -2.86959 164 ft 54 kts 85°
2026-04-21 14:38 53.33300 -2.86315 225 ft 56 kts 89°
2026-04-21 14:39 53.33315 -2.85693 382 ft 54 kts 86°
2026-04-21 14:39 53.33381 -2.85035 557 ft 61 kts 85°
2026-04-21 14:39 53.33494 -2.84235 714 ft 81 kts 75°
2026-04-21 14:39 53.33944 -2.83495 954 ft 95 kts 51°
2026-04-21 14:40 53.34442 -2.82731 1234 ft 99 kts 52°
2026-04-21 14:40 53.34958 -2.81949 1513 ft 102 kts 51°
2026-04-21 14:40 53.35528 -2.81062 1535 ft 119 kts 51°
2026-04-21 14:40 53.36150 -2.80069 1539 ft 132 kts 52°
2026-04-21 14:41 53.36831 -2.78967 1535 ft 137 kts 51°
2026-04-21 14:41 53.37522 -2.77853 1532 ft 139 kts 52°
2026-04-21 14:41 53.38223 -2.76733 1534 ft 139 kts 52°
2026-04-21 14:41 53.38917 -2.75627 1536 ft 136 kts 51°
2026-04-21 14:42 53.39595 -2.74505 1535 ft 137 kts 51°
2026-04-21 14:42 53.40273 -2.73367 1534 ft 138 kts 51°
2026-04-21 14:42 53.40938 -2.72240 1539 ft 139 kts 51°
2026-04-21 14:42 53.41610 -2.71099 1542 ft 137 kts 52°
2026-04-21 14:43 53.42291 -2.69980 1535 ft 136 kts 51°
2026-04-21 14:43 53.42969 -2.68871 1532 ft 136 kts 51°
2026-04-21 14:43 53.43639 -2.67755 1541 ft 136 kts 51°
2026-04-21 14:43 53.44307 -2.66622 1537 ft 137 kts 52°
2026-04-21 14:44 53.44972 -2.65486 1543 ft 136 kts 51°
2026-04-21 14:44 53.45634 -2.64358 1521 ft 134 kts 52°
2026-04-21 14:44 53.46073 -2.63072 1521 ft 127 kts 89°
2026-04-21 14:44 53.45827 -2.61740 1524 ft 104 kts 109°
2026-04-21 14:45 53.45553 -2.60795 1509 ft 75 kts 109°
2026-04-21 14:45 53.45353 -2.60152 1491 ft 54 kts 105°
2026-04-21 14:45 53.45280 -2.59603 1426 ft 49 kts 94°
2026-04-21 14:45 53.45213 -2.59074 1379 ft 46 kts 98°
2026-04-21 14:46 53.45185 -2.58543 1341 ft 46 kts 90°
2026-04-21 14:46 53.45164 -2.58007 1422 ft 49 kts 93°
2026-04-21 14:46 53.45140 -2.57418 1452 ft 51 kts 85°
2026-04-21 14:46 53.45197 -2.56827 1537 ft 53 kts 77°
2026-04-21 14:47 53.45287 -2.56199 1531 ft 57 kts 79°
2026-04-21 14:47 53.45385 -2.55578 1515 ft 55 kts 76°
2026-04-21 14:47 53.45521 -2.55004 1444 ft 50 kts 72°
2026-04-21 14:47 53.45678 -2.54427 1286 ft 59 kts 72°
2026-04-21 14:48 53.45817 -2.53800 1118 ft 58 kts 75°
2026-04-21 14:48 53.45945 -2.53130 1041 ft 60 kts 76°
2026-04-21 14:48 53.46063 -2.52489 1001 ft 59 kts 72°
2026-04-21 14:48 53.46173 -2.51852 903 ft 50 kts 79°
2026-04-21 14:49 53.46250 -2.51247 840 ft 55 kts 83°
2026-04-21 14:49 53.46331 -2.50640 970 ft 58 kts 77°
2026-04-21 14:49 53.46407 -2.49949 1151 ft 66 kts 87°
2026-04-21 14:49 53.46355 -2.49107 1414 ft 75 kts 95°
2026-04-21 14:50 53.46277 -2.48151 1550 ft 83 kts 92°
2026-04-21 14:50 53.46318 -2.47188 1603 ft 83 kts 75°
2026-04-21 14:50 53.46491 -2.46319 1520 ft 72 kts 77°
2026-04-21 14:50 53.46603 -2.45543 1304 ft 64 kts 78°
2026-04-21 14:51 53.46710 -2.44876 1058 ft 53 kts 79°
2026-04-21 14:51 53.46732 -2.44245 902 ft 58 kts 90°
2026-04-21 14:51 53.46782 -2.43658 817 ft 47 kts 79°
2026-04-21 14:51 53.46850 -2.43024 690 ft 56 kts 83°
2026-04-21 14:52 53.46903 -2.42399 642 ft 56 kts 81°
2026-04-21 14:52 53.46956 -2.41692 492 ft 63 kts 80°
2026-04-21 14:52 53.47010 -2.40962 346 ft 61 kts 83°
2026-04-21 14:52 53.47060 -2.40281 218 ft 62 kts 82°
2026-04-21 14:53 53.47110 -2.39573 98 ft 56 kts 80°
2026-04-21 14:53 53.47154 -2.39047 73 ft 33 kts 83°
2026-04-21 14:53 53.47148 -2.38821 72 ft 11 kts 121°
2026-04-21 14:53 53.47121 -2.38735 74 ft 12 kts 117°
2026-04-21 14:54 53.47064 -2.38648 74 ft 11 kts 175°
2026-04-21 14:54 53.47011 -2.38708 74 ft 7 kts 263°
2026-04-21 14:54 53.47008 -2.38702 74 ft 0 kts 38°